DW3478 Weather Reports


time (UTC)temp
C
wind
direction
speed
KPH
gust
KPH
rain 1hr
cm
rain 24hr
cm
rain mn
cm
humidity
%
barometer
mb
20180221225810 12 103 1.6 4.8 0.00 0.00 0.00 85 1012.2
20180221224810 12 103 0.0 3.2 0.00 0.00 0.00 85 1012.4
20180221223810 13 103 0.0 0.0 0.00 0.00 0.00 85 1012.5
20180221221809 13 103 0.0 0.0 0.00 0.00 0.00 84 1012.8
20180221215811 13 103 0.0 4.8 0.00 0.00 0.00 84 1012.9
20180221214809 13 103 1.6 4.8 0.00 0.00 0.00 83 1013.0
20180221212811 13 103 0.0 0.0 0.00 0.00 0.00 83 1012.9
20180221205810 13 103 0.0 0.0 0.00 0.00 0.00 80 1012.8
20180221204810 13 103 0.0 0.0 0.00 0.00 0.00 79 1012.8
20180221203809 13 103 0.0 4.8 0.00 0.00 0.00 77 1012.7
20180221200809 13 103 3.2 4.8 0.00 0.00 0.00 76 1012.7
20180221185810 13 103 1.6 4.8 0.00 0.00 0.00 81 1013.0
20180221184809 13 103 3.2 9.7 0.00 0.00 0.00 82 1012.9
20180221183810 13 103 8.0 11.3 0.00 0.00 0.00 83 1012.8
20180221181809 14 103 8.0 11.3 0.00 0.00 0.00 83 1013.0
20180221174810 14 102 8.0 11.3 0.00 0.00 0.00 82 1013.0
20180221173809 14 102 8.0 14.5 0.00 0.00 0.00 82 1012.7
20180221171809 15 98 8.0 14.5 0.00 0.00 0.00 81 1012.9
20180221170810 15 98 4.8 11.3 0.00 0.00 0.00 81 1012.9
20180221165810 15 98 8.0 14.5 0.00 0.00 0.00 80 1012.9
20180221164809 15 97 8.0 14.5 0.00 0.00 0.00 80 1012.9
20180221163809 15 97 4.8 8.0 0.00 0.00 0.00 80 1012.9
20180221162810 15 97 4.8 9.7 0.00 0.00 0.00 80 1013.0
20180221160809 15 97 6.4 12.9 0.00 0.00 0.00 80 1013.0
20180221155809 15 97 6.4 11.3 0.00 0.00 0.00 79 1013.1
20180221154809 15 97 4.8 12.9 0.00 0.00 0.00 79 1013.2
20180221150809 15 90 8.0 11.3 0.00 0.00 0.00 79 1013.6
20180221143810 15 90 6.4 11.3 0.00 0.00 0.00 78 1013.7
20180221140810 15 88 8.0 14.5 0.00 0.00 0.00 77 1014.0
20180221135809 15 77 8.0 16.1 0.00 0.00 0.00 75 1014.2
20180221134809 16 73 4.8 16.1 0.00 0.00 0.00 73 1014.3
20180221133811 15 73 3.2 9.7 0.00 0.00 0.00 73 1014.3
20180221131809 15 73 4.8 14.5 0.00 0.00 0.00 75 1014.6
20180221130810 15 73 8.0 11.3 0.00 0.00 0.00 75 1014.9
20180221125810 15 73 4.8 8.0 0.00 0.00 0.00 75 1015.0
20180221124809 15 73 3.2 4.8 0.00 0.00 0.00 75 1015.3
20180221123809 15 73 1.6 4.8 0.00 0.00 0.00 74 1015.5
20180221122810 15 73 1.6 4.8 0.00 0.00 0.00 74 1015.7
20180221121809 15 73 1.6 4.8 0.00 0.00 0.00 73 1015.6
20180221120810 15 73 3.2 9.7 0.00 0.00 0.00 73 1015.6
20180221115810 15 73 6.4 9.7 0.00 0.00 0.00 72 1015.6
20180221112811 15 73 1.6 4.8 0.00 0.00 0.00 74 1015.6
20180221111809 15 73 0.0 3.2 0.00 0.00 0.00 74 1015.8
20180221110809 15 73 1.6 4.8 0.00 0.00 0.00 75 1015.8
20180221105809 14 73 0.0 8.0 0.00 0.00 0.00 74 1015.9
20180221104810 14 73 3.2 8.0 0.00 0.00 0.00 75 1016.0
20180221103809 14 73 3.2 4.8 0.00 0.00 0.00 75 1015.9
20180221102810 14 73 1.6 8.0 0.00 0.00 0.00 75 1015.6
20180221101809 14 73 3.2 8.0 0.00 0.00 0.00 76 1015.7
20180221094809 14 73 0.0 4.8 0.00 0.00 0.00 77 1015.7
20180221092810 13 73 0.0 0.0 0.00 0.00 0.00 79 1015.8
20180221083809 12 73 0.0 1.6 0.00 0.00 0.00 79 1015.5
20180221080810 12 73 1.6 4.8 0.00 0.00 0.00 78 1015.3
20180221074809 12 73 4.8 9.7 0.00 0.00 0.00 78 1015.2
20180221073809 12 73 3.2 4.8 0.00 0.00 0.00 77 1015.2
20180221072809 12 73 0.0 0.0 0.00 0.00 0.00 78 1015.2
20180221071810 12 73 0.0 0.0 0.00 0.00 0.00 77 1015.2
20180221065810 12 73 0.0 0.0 0.00 0.00 0.00 76 1015.1
20180221064809 12 73 0.0 0.0 0.00 0.00 0.00 76 1015.2
20180221062810 12 73 0.0 3.2 0.00 0.00 0.00 76 1015.1
20180221061809 13 63 0.0 1.6 0.00 0.00 0.00 76 1015.2
20180221060810 13 63 0.0 0.0 0.00 0.00 0.00 74 1015.1
20180221055810 13 63 0.0 4.8 0.00 0.00 0.00 74 1015.0
20180221053809 13 63 0.0 8.0 0.00 0.00 0.00 73 1015.0
20180221052810 13 63 1.6 4.8 0.00 0.00 0.00 74 1015.1
20180221050810 13 63 4.8 11.3 0.00 0.00 0.00 74 1015.1
20180221045810 13 63 3.2 11.3 0.00 0.00 0.00 74 1015.2
20180221043809 12 58 1.6 8.0 0.00 0.00 0.00 75 1015.2
20180221041809 12 58 0.0 3.2 0.00 0.00 0.00 76 1015.3
20180221040809 12 58 1.6 8.0 0.00 0.00 0.00 76 1015.3
20180221034809 12 58 1.6 4.8 0.00 0.00 0.00 76 1015.5
20180221033810 13 58 0.0 4.8 0.00 0.00 0.00 75 1015.5
20180221032809 13 58 3.2 4.8 0.00 0.00 0.00 74 1015.7
20180221031809 13 58 3.2 4.8 0.00 0.00 0.00 74 1015.8
20180221030810 12 58 6.4 11.3 0.00 0.00 0.00 74 1015.8
20180221024810 12 66 3.2 4.8 0.00 0.00 0.00 74 1016.1
20180221022810 12 66 1.6 8.0 0.00 0.00 0.00 75 1016.3
20180221021810 13 66 0.0 4.8 0.00 0.00 0.00 74 1016.4
20180221015810 12 75 1.6 4.8 0.00 0.00 0.00 74 1016.5
20180221010810 12 71 3.2 9.7 0.00 0.00 0.00 74 1017.0
20180221005810 12 71 1.6 8.0 0.00 0.00 0.00 74 1017.0
20180221004809 12 71 4.8 9.7 0.00 0.00 0.00 75 1017.3
20180221003810 12 71 4.8 16.1 0.00 0.00 0.00 74 1017.2
20180221001809 12 47 12.9 27.4 0.00 0.00 0.00 77 1017.3
20180221000821 12 51 9.7 19.3 0.00 0.00 0.00 78 1017.5
20180220235810 12 56 3.2 20.9 0.00 0.00 0.00 79 1017.5
20180220234810 12 52 8.0 19.3 0.00 0.00 0.00 79 1017.5
20180220233809 12 54 8.0 22.5 0.00 0.00 0.00 79 1017.6
20180220231809 12 42 3.2 9.7 0.00 0.00 0.00 77 1017.7
20180220230809 12 42 6.4 19.3 0.00 0.00 0.00 75 1017.7